Location: Taio
(46.3224°N, 11.0658°E)
Time: 03:55:12
(UTC+01:00)

ISS - Visible Passes

Search period start: 16 November 2018 00:00
Search period end: 26 November 2018 00:00
Orbit: 402 x 408 km, 51.6° (Epoch: 16 November)

Date Brightness Start Highest point End Pass type
(mag) Time Alt. Az. Time Alt. Az. Time Alt. Az.
24 Nov -2.2 18:32:05 10° SSW 18:34:00 24° S 18:34:00 24° S visible
25 Nov -1.9 17:40:44 10° S 17:42:57 17° SE 17:44:10 14° ESE visible
25 Nov -1.1 19:15:48 10° WSW 19:16:50 19° WSW 19:16:50 19° WSW visible
